User: anonymous   Login
Location: Byszew
(52.1813°N, 19.2693°E)
Time: 22:20:30
(UTC+00:00)
Language:

Cosmos 1933 Rocket - Orbit

View from above orbital plane
View from above orbital plane
View from above satellite
View from above satellite

Ground track
Ground track

The orbit data is extracted from the following two-line orbital elements,

1 18959U 88020B   21125.44673726  .00000076  00000-0  62395-5 0  9993
2 18959  82.5408  25.4527 0017891 135.6051 224.6603 14.83476856790835
Epoch (UTC): 05 May 2021 10:43:18
Eccentricity: 0.0017891
inclination: 82.5408°
perigee height: 606 km
apogee height: 631 km
right ascension of ascending node: 25.4527°
argument of perigee: 135.6051°
revolutions per day: 14.83476856
mean anomaly at epoch: 224.6603°
orbit number at epoch: 79083

The dashed part of the orbit path shows where the satellite is in the earth's shadow,  

DLR